This is the latest recevied weather packets stored in our database for station/object KC5TIL. If no packets are shown the sender has not sent any weather packets the latest 10 day(s).
| Time | Temp. | Humidity | Pressure | Rain* | Wind** | Luminosity | Snow |
|---|---|---|---|---|---|---|---|
| 1788537837 | 33.33° C | 56% | 1015.5 hPa | 0 mm | - | 656 W/m² | - |
| 1788537532 | 33.33° C | 57% | 1015.5 hPa | 0 mm | - | 641 W/m² | - |
| 1788537226 | 34.44° C | 54% | 1015.5 hPa | 0 mm | - | 635 W/m² | - |
| 1788536925 | 33.33° C | 55% | 1015.8 hPa | 0 mm | - | 643 W/m² | - |
| 1788536620 | 33.33° C | 57% | 1015.6 hPa | 0 mm | - | 604 W/m² | - |
| 1788536316 | 32.78° C | 58% | 1015.5 hPa | 0 mm | - | 584 W/m² | - |
| 1788536010 | 32.22° C | 59% | 1015.4 hPa | 0 mm | - | 583 W/m² | - |
| 1788535707 | 32.78° C | 58% | 1015.2 hPa | 0 mm | - | 572 W/m² | - |
| 1788535401 | 32.22° C | 60% | 1015.4 hPa | 0 mm | - | 599 W/m² | - |
| 1788535096 | 31.67° C | 64% | 1015.4 hPa | 0 mm | - | 581 W/m² | - |
| 1788534795 | 31.67° C | 66% | 1015.3 hPa | 0 mm | - | 547 W/m² | - |
| 1788534492 | 31.67° C | 65% | 1015.4 hPa | 0 mm | - | 524 W/m² | - |
| 1788534187 | 31.11° C | 68% | 1015.5 hPa | 0 mm | - | 486 W/m² | - |
| 1788533884 | 31.11° C | 68% | 1015.5 hPa | 0 mm | - | 436 W/m² | - |
| 1788533581 | 30.56° C | 73% | 1015.6 hPa | 0 mm | - | 388 W/m² | - |
| 1788533275 | 30.56° C | 73% | 1015.8 hPa | 0 mm | - | 350 W/m² | - |
| 1788532971 | 30.56° C | 74% | 1015.7 hPa | 0 mm | - | 340 W/m² | - |
| 1788532667 | 29.44° C | 77% | 1015.7 hPa | 0 mm | - | 335 W/m² | - |
| 1788532364 | 29.44° C | 78% | 1015.7 hPa | 0 mm | - | 184 W/m² | - |
| 1788532059 | 28.89° C | 80% | 1015.6 hPa | 0 mm | - | 170 W/m² | - |
| 1788531755 | 28.89° C | 80% | 1015.7 hPa | 0 mm | - | 256 W/m² | - |
| 1788531455 | 27.78° C | 83% | 1015.6 hPa | 0 mm | - | 202 W/m² | - |
| 1788531151 | 27.78° C | 82% | 1015.8 hPa | 0 mm | - | 126 W/m² | - |
| 1788530846 | 27.78° C | 83% | 1015.6 hPa | 0 mm | - | 119 W/m² | - |
| 1788530541 | 27.22° C | 85% | 1015.8 hPa | 0 mm | - | 200 W/m² | - |
* Rain latest hour (hover to see other rain measurements)
** Current wind speed in m/s (hover to see current wind gust speed)